This is the latest recevied weather packets stored in our database for station/object R2AJV-13. If no packets are shown the sender has not sent any weather packets the latest 10 day(s).
| Time | Temp. | Humidity | Pressure | Rain* | Wind** | Luminosity | Snow |
|---|---|---|---|---|---|---|---|
| 1777788066 | 15° C | 62% | 998.3 hPa | 0 mm | - | - | - |
| 1777787156 | 14.44° C | 64% | 998.2 hPa | 0 mm | - | - | - |
| 1777746629 | 11.67° C | 68% | 1000.6 hPa | 0 mm | - | - | - |
| 1777745717 | 12.22° C | 67% | 1000.6 hPa | 0 mm | - | - | - |
| 1777744868 | 12.22° C | 67% | 1000.6 hPa | 0 mm | - | - | - |
| 1777743958 | 12.22° C | 66% | 1000.6 hPa | 0 mm | - | - | - |
| 1777743052 | 12.78° C | 65% | 1000.7 hPa | 0 mm | - | - | - |
| 1777742140 | 12.78° C | 64% | 1000.6 hPa | 0 mm | - | - | - |
| 1777741230 | 13.33° C | 63% | 1000.6 hPa | 0 mm | - | - | - |
| 1777740318 | 13.33° C | 63% | 1000.6 hPa | 0 mm | - | - | - |
| 1777739468 | 13.89° C | 62% | 1000.6 hPa | 0 mm | - | - | - |
| 1777738558 | 13.89° C | 61% | 1000.7 hPa | 0 mm | - | - | - |
| 1777737654 | 14.44° C | 61% | 1000.8 hPa | 0 mm | - | - | - |
| 1777736742 | 14.44° C | 60% | 1000.9 hPa | 0 mm | - | - | - |
| 1777735832 | 15° C | 59% | 1000.8 hPa | 0 mm | - | - | - |
| 1777734922 | 15.56° C | 57% | 1001 hPa | 0 mm | - | - | - |
| 1777734077 | 16.11° C | 56% | 1001.1 hPa | 0 mm | - | - | - |
| 1777733135 | 16.11° C | 55% | 1001.4 hPa | 0 mm | - | - | - |
| 1777732230 | 16.11° C | 56% | 1001.6 hPa | 0 mm | - | - | - |
| 1777731317 | 16.67° C | 56% | 1001.5 hPa | 0 mm | - | - | - |
| 1777730469 | 16.11° C | 57% | 1001.7 hPa | 0 mm | - | - | - |
| 1777729557 | 16.11° C | 57% | 1001.7 hPa | 0 mm | - | - | - |
| 1777728653 | 16.67° C | 55% | 1001.8 hPa | 0 mm | - | - | - |
| 1777727741 | 17.22° C | 54% | 1001.9 hPa | 0 mm | - | - | - |
| 1777726866 | 16.67° C | 55% | 1002 hPa | 0 mm | - | - | - |
* Rain latest hour (hover to see other rain measurements)
** Current wind speed in m/s (hover to see current wind gust speed)